Wind_Speed
8 8 9 9 8 6 5 5 3 3 4 5 5 5 5 4 3 2 2 3 6 10 11 9 8 8 9 9 9 11 13 14 15 16 18 20 22 22 21 21 22 22 23 23 23 23 23 24 24 22 21 20 21 22 22 21 21 20 20 19 18 17 17 17 16 16 16 15 15 16 16 17 19 21
9 8 8 8 8 7 7 6 5 5 7 7 8 8 8 8 7 5 3 4 7 12 13 12 9 8 8 8 9 12 15 16 17 18 21 24 25 25 25 24 24 25 26 26 26 26 26 25 23 20 19 19 19 21 22 22 22 22 22 22 21 20 19 18 17 16 15 14 14 14 14 15 15 17
11 9 9 9 9 8 7 7 6 6 7 8 9 9 10 11 11 10 7 4 8 12 13 13 12 10 11 12 13 15 16 17 17 18 21 24 24 25 25 26 26 27 28 28 27 26 24 23 21 19 18 18 19 20 21 23 24 24 24 24 24 24 22 21 20 19 18 16 15 15 14 14 14 15
12 12 11 11 9 8 8 8 7 7 8 8 9 10 11 11 11 12 11 7 8 13 14 14 15 14 14 15 14 15 16 17 18 19 21 23 24 25 26 27 27 26 26 26 26 25 24 23 22 21 21 20 20 21 22 24 25 26 26 26 26 27 26 25 23 23 22 21 20 19 18 17 16 16
13 14 13 12 11 10 9 9 9 9 9 9 10 10 11 12 11 13 13 10 10 13 14 14 15 15 14 15 14 14 15 17 18 20 22 22 23 23 25 26 26 26 26 26 26 25 25 25 24 23 23 23 23 24 24 24 25 26 27 28 28 29 29 28 27 26 25 24 24 24 23 21 19 19
15 15 14 13 12 11 11 11 11 11 11 10 11 11 11 12 12 13 13 12 10 12 14 13 14 14 14 14 15 14 16 17 17 18 20 21 21 22 23 24 25 25 25 24 24 24 24 24 25 25 26 25 25 25 23 22 23 24 26 27 29 29 30 31 30 29 28 28 28 28 27 25 23 21
17 16 15 14 13 12 12 13 13 13 12 12 12 12 12 12 12 11 11 11 11 12 15 15 14 15 16 17 18 18 19 19 19 18 19 19 20 21 21 22 23 23 23 23 23 24 24 25 25 26 26 25 24 24 24 24 24 24 24 25 27 29 30 31 31 32 32 31 31 30 28 26 23 22
18 17 17 15 14 13 13 14 14 14 13 14 14 13 13 12 12 11 10 11 11 12 15 17 18 19 20 21 21 20 20 20 20 19 19 19 20 20 20 20 21 21 22 22 24 24 25 25 25 25 25 25 25 25 26 26 26 26 27 27 27 27 28 28 30 32 34 34 33 30 27 25 24 23
19 18 17 16 15 14 15 15 14 14 14 14 14 13 13 12 11 11 10 11 12 13 15 18 20 21 22 22 21 20 20 21 21 20 20 21 21 21 21 20 20 21 21 22 22 23 23 24 24 24 25 26 27 27 28 28 28 29 29 30 31 30 30 29 29 30 32 33 32 30 28 27 28 27
20 19 18 17 16 16 16 15 15 15 15 14 13 13 13 12 11 11 11 11 12 13 14 17 19 20 20 20 20 21 20 20 21 21 21 21 21 21 21 21 21 20 20 20 21 22 23 24 24 25 26 28 29 30 31 31 31 32 32 33 34 35 35 34 33 32 31 31 31 31 31 32 32 31
20 20 19 18 18 18 17 16 16 15 14 14 14 14 13 12 11 11 11 12 13 14 15 16 17 17 18 18 19 20 19 18 19 19 18 19 20 19 18 19 19 19 20 21 23 24 25 25 26 27 28 29 30 31 31 31 32 32 33 34 35 35 36 36 36 35 34 33 33 34 34 34 34 34
20 19 19 19 19 19 18 17 17 16 15 15 15 15 14 12 12 12 13 13 14 14 15 16 17 17 18 18 18 19 18 16 16 16 15 17 19 18 17 17 18 19 21 24 25 26 26 25 25 26 26 27 27 28 29 30 31 32 34 35 35 35 34 34 35 35 35 36 37 37 35 33 33 35
21 20 19 18 18 18 19 19 18 17 17 16 16 15 14 13 14 14 14 14 14 15 15 17 17 17 16 16 16 17 16 15 16 16 16 17 17 17 18 19 19 19 21 24 25 25 25 24 24 24 25 26 26 27 29 30 31 31 32 32 32 32 32 32 33 33 34 34 35 35 35 34 35 37
21 20 18 16 17 18 19 19 20 20 20 20 19 18 17 17 17 16 16 16 16 15 15 16 17 15 14 15 15 15 16 16 15 15 14 15 15 15 16 17 18 18 19 21 23 24 24 24 25 26 26 28 29 30 31 32 31 31 31 31 32 33 33 33 32 32 32 32 33 34 35 37 39 40
21 19 17 16 19 21 20 19 19 20 22 22 21 21 21 21 21 20 18 18 17 15 15 16 17 15 14 15 15 15 15 14 13 13 14 15 16 15 13 13 15 16 17 20 23 25 25 24 26 28 29 30 32 31 31 31 30 31 31 31 33 34 35 35 35 35 35 35 35 37 38 40 42 44
19 17 17 19 21 21 20 18 16 18 21 21 21 22 22 22 23 22 20 19 19 18 17 18 18 17 16 16 16 14 13 13 14 15 15 15 16 15 13 14 15 16 18 22 25 29 30 27 27 29 30 30 30 29 30 31 29 29 30 31 33 35 36 37 37 38 38 38 39 40 41 42 43 44
19 17 18 20 20 17 15 15 15 17 19 19 20 21 22 23 23 21 20 20 20 21 22 20 19 18 17 15 15 15 14 15 15 15 15 15 15 16 16 17 20 22 24 26 28 31 31 27 26 28 29 29 29 29 30 30 29 30 31 32 34 36 37 38 38 39 40 41 42 43 42 42 43 45
21 19 18 19 17 15 15 15 17 19 20 19 19 20 20 21 19 18 19 20 20 23 24 23 22 21 20 19 19 18 16 15 14 15 17 18 19 21 22 23 26 27 26 27 27 27 28 27 25 27 28 28 27 27 28 28 29 30 31 33 35 37 39 40 40 39 40 40 42 43 44 45 47 49
22 21 19 17 15 14 17 17 17 19 19 18 18 18 18 18 18 19 20 19 19 20 20 21 22 22 21 21 20 17 16 17 18 19 20 20 21 23 24 24 26 25 24 24 24 24 26 26 23 23 25 26 26 26 27 29 30 32 34 36 39 40 40 39 39 38 39 41 44 46 49 51 52 53
22 21 20 19 16 15 19 20 18 17 17 16 15 16 16 17 18 20 19 18 18 18 16 17 19 19 18 18 17 18 18 20 20 19 19 20 21 21 20 20 22 21 20 22 24 25 25 23 21 22 25 26 27 28 29 30 32 35 37 38 39 38 36 36 37 38 41 44 47 50 52 53 55 56
21 21 20 20 19 17 19 21 20 19 18 16 15 14 15 15 17 17 17 16 17 17 16 17 16 16 16 16 17 18 18 19 19 19 19 22 23 20 16 15 18 19 19 22 25 26 23 21 21 23 25 26 28 30 32 33 34 35 35 35 34 34 33 35 38 41 45 48 50 52 53 55 56 56
21 22 22 21 20 20 19 19 18 19 18 17 15 14 13 14 15 15 13 13 12 11 10 11 12 13 14 14 15 17 17 18 20 22 24 26 23 18 15 15 17 19 21 23 22 20 19 19 20 23 26 27 29 31 31 31 31 30 30 31 31 32 33 37 41 45 47 49 51 53 54 54 55 55
21 22 23 22 21 20 19 18 18 18 17 16 14 12 12 12 13 12 10 10 9 9 8 9 11 12 14 16 17 19 19 20 23 26 30 30 25 20 19 20 17 13 14 16 17 18 19 21 22 24 22 18 21 28 28 27 27 28 29 31 32 33 37 40 43 45 47 48 49 51 52 51 51 52
22 23 22 21 20 19 19 19 18 18 17 15 13 12 11 12 12 12 12 13 13 13 13 14 14 15 16 18 19 19 20 20 20 20 22 24 25 24 22 19 15 12 14 19 22 24 24 23 24 26 21 14 16 25 28 27 29 30 31 32 33 35 38 41 42 43 44 45 46 46 47 47 46 48
21 21 20 19 20 20 19 18 18 17 15 14 12 12 13 14 14 14 16 17 16 14 13 13 15 16 16 16 16 17 18 17 16 15 14 14 17 18 17 17 18 19 24 29 29 27 25 24 24 26 24 20 21 25 28 30 32 33 32 31 31 34 37 39 41 42 41 41 41 41 41 42 42 44
17 17 18 18 18 17 15 15 16 14 13 12 12 13 14 15 15 15 15 14 12 11 11 12 13 14 14 14 15 16 16 15 15 15 15 14 16 19 22 24 23 24 28 32 30 27 25 25 25 25 23 21 23 26 27 28 31 33 30 29 31 34 37 37 38 40 39 38 39 38 39 39 40 41
15 13 14 15 15 13 13 14 15 13 12 12 12 12 13 13 13 12 11 10 10 10 10 12 13 14 14 14 15 14 15 15 15 16 17 19 21 24 25 26 25 26 28 29 29 28 27 26 27 27 25 23 23 22 21 23 29 32 31 31 34 36 36 35 36 39 39 38 38 39 39 39 38 39
14 12 12 13 13 12 12 12 12 11 12 12 11 11 11 11 10 10 10 10 10 10 11 13 13 13 13 13 14 13 14 15 17 19 21 22 22 22 23 23 24 25 26 27 27 28 27 28 30 29 28 26 22 18 18 23 28 31 31 33 35 35 35 34 35 37 37 37 38 38 37 36 37 38
11 9 9 10 11 12 11 10 10 11 12 13 13 12 11 10 8 9 10 10 9 10 11 11 11 12 14 15 14 14 17 20 22 22 22 21 20 20 20 22 23 24 26 26 26 27 28 30 31 29 26 25 23 21 22 25 28 30 30 31 34 36 35 33 34 36 37 37 36 36 36 36 36 37
8 8 8 9 9 9 8 8 10 12 14 14 13 12 11 10 9 9 10 9 9 10 11 10 11 13 15 15 16 17 20 22 21 20 19 20 20 19 19 22 25 26 26 26 26 27 27 27 26 23 22 24 25 25 26 26 27 30 32 31 32 33 32 32 34 35 35 35 35 36 37 37 37 37
8 8 8 8 7 7 8 11 12 13 13 13 12 12 12 11 10 10 10 10 11 12 12 12 12 12 12 14 16 19 20 19 18 18 18 19 19 19 20 22 24 26 27 26 24 23 23 23 22 20 22 24 25 26 28 27 27 30 33 33 30 30 32 35 35 34 34 34 36 37 37 37 37 37
10 8 8 8 8 10 13 13 13 12 13 13 12 11 11 11 11 12 11 12 14 16 16 15 12 9 9 12 16 18 18 18 18 18 18 18 19 21 22 21 22 24 24 23 23 23 23 23 21 21 23 25 25 28 29 28 28 30 32 33 32 32 34 35 33 34 36 36 35 37 37 37 36 35
12 11 10 11 13 14 14 12 11 11 12 13 13 13 13 13 14 13 12 13 14 15 15 13 8 6 9 14 17 17 17 18 18 18 17 19 21 23 22 20 20 21 21 21 23 25 25 23 22 23 26 26 25 26 25 26 30 31 30 31 34 34 33 33 33 34 35 35 34 36 37 37 37 35
14 13 14 14 14 14 13 12 11 11 13 15 16 16 17 17 16 15 13 12 13 12 8 5 4 8 11 14 16 16 17 18 17 17 19 20 20 20 20 19 19 19 20 21 24 25 26 25 23 24 26 26 24 24 23 24 28 30 29 30 32 33 34 35 35 36 35 34 33 33 34 36 38 37
14 13 13 12 11 10 10 10 11 13 15 15 15 14 15 17 16 14 10 6 5 5 3 3 7 10 12 14 16 17 17 17 17 18 19 18 18 19 19 18 18 19 20 21 23 25 26 25 22 21 22 22 22 23 22 21 22 25 28 30 31 33 34 35 37 37 36 34 32 29 28 31 36 36
12 10 9 9 9 10 10 10 10 11 10 8 8 8 8 6 4 3 1 1 3 4 5 8 11 12 12 14 16 16 15 15 17 18 18 17 18 19 18 16 17 20 20 20 23 27 27 23 19 16 14 12 12 13 18 24 26 26 26 29 31 33 35 36 37 36 33 31 31 28 25 27 33 36
10 9 9 9 10 10 11 11 9 8 8 7 8 8 6 6 7 5 3 5 8 10 11 13 12 12 13 14 14 13 14 15 17 17 17 18 18 17 16 16 18 19 20 22 25 28 26 21 17 14 10 8 7 8 15 28 35 32 27 27 31 34 36 36 36 34 31 29 30 29 28 30 35 37
8 7 7 9 9 8 8 8 7 7 7 7 9 10 8 8 9 7 6 8 11 12 12 12 10 10 12 13 13 14 15 16 16 16 16 17 17 16 16 17 18 19 21 23 24 25 24 19 16 14 10 7 6 7 12 21 30 34 33 30 30 32 35 35 34 33 32 30 31 32 33 34 34 32
7 6 6 8 7 6 5 6 7 7 6 6 7 8 9 9 9 9 10 11 11 10 8 9 10 11 13 14 14 14 15 15 15 16 16 16 16 16 17 18 18 20 21 21 20 22 22 19 17 18 17 14 12 14 18 20 25 31 35 33 29 29 33 36 35 33 31 31 34 37 38 38 34 25
6 6 6 6 5 5 6 6 7 7 7 6 6 7 9 10 10 11 11 10 11 12 13 12 13 13 14 13 12 13 13 14 14 16 16 16 17 18 18 18 19 20 19 18 18 20 20 19 20 23 25 23 22 23 23 22 23 28 32 33 32 30 32 35 35 32 31 31 33 35 36 35 32 23
7 6 5 3 3 5 6 5 5 7 8 7 7 8 9 9 9 9 9 9 12 15 16 15 13 12 12 11 11 11 13 14 15 15 15 17 18 19 19 19 19 18 17 17 18 19 20 22 25 27 26 25 22 19 17 14 15 21 28 32 34 34 33 33 33 32 31 30 31 32 32 29 27 23
7 5 3 1 2 4 5 4 3 5 7 7 8 9 9 9 8 8 8 10 13 14 14 13 12 10 9 10 10 12 13 14 15 15 16 17 18 18 18 18 18 18 18 17 18 20 22 25 27 27 25 22 17 12 10 9 11 19 26 30 34 37 36 34 33 32 30 27 28 31 30 25 20 15
6 3 2 2 3 4 5 5 5 6 7 7 7 9 10 10 10 10 11 12 12 11 11 10 8 8 9 10 10 11 13 13 15 16 17 18 18 17 18 18 18 19 20 19 20 22 24 26 27 26 22 19 15 12 13 14 16 20 24 28 32 36 36 36 36 35 32 29 28 29 28 24 17 11
4 3 3 3 5 6 8 9 7 6 7 7 7 9 11 10 9 10 11 12 12 10 8 7 7 8 9 9 10 12 13 14 16 17 17 18 18 17 18 19 19 20 20 19 20 23 23 25 27 24 18 16 16 15 16 18 18 20 23 26 30 34 35 35 37 37 36 34 32 29 28 28 24 18
4 4 4 5 6 6 8 9 9 7 7 7 8 9 8 6 7 10 11 11 10 8 7 7 7 8 8 9 11 12 13 14 15 16 16 17 18 17 18 18 19 19 19 19 21 23 23 24 25 21 16 16 16 16 17 17 17 19 23 26 29 31 32 33 33 34 34 35 34 32 29 28 28 28
Wind_Direction
212 225 230 229 239 254 254 261 276 257 252 262 253 242 236 231 242 272 279 279 283 289 297 307 297 263 249 257 262 260 260 262 267 270 272 275 275 275 276 277 278 279 280 280 281 281 282 283 285 285 281 275 270 268 266 265 267 268 268 269 272 276 280 282 283 284 284 285 286 286 285 282 278 276
218 229 228 225 228 232 237 248 249 229 230 239 241 239 235 234 236 243 263 270 272 281 284 286 281 259 254 270 272 266 269 274 277 276 276 280 282 283 285 285 282 280 279 279 280 280 280 281 281 281 279 275 272 268 265 264 265 267 268 268 268 268 271 274 277 278 278 280 282 285 288 288 287 285
215 222 225 226 225 222 226 237 239 229 226 228 231 232 232 234 237 241 251 261 263 268 273 275 275 269 271 279 275 270 271 273 274 274 275 278 280 281 283 285 284 283 284 284 284 284 282 282 280 277 277 276 273 270 266 264 262 263 264 265 266 265 265 266 269 271 272 273 276 281 285 287 289 291
209 215 224 228 224 220 225 234 238 237 236 232 232 234 236 237 239 244 247 253 265 266 268 273 274 273 276 280 278 274 270 265 263 265 269 271 272 273 276 279 281 282 285 286 287 287 285 284 283 279 276 274 272 272 270 268 265 263 262 262 263 264 264 263 263 265 268 270 273 278 280 282 285 290
208 213 219 225 224 221 226 231 234 237 237 236 237 239 239 241 245 247 246 249 266 272 272 273 276 276 276 275 275 276 275 270 264 260 261 264 266 269 272 275 276 276 278 280 283 285 286 286 286 282 277 273 272 274 276 275 272 269 267 265 264 264 265 264 263 263 265 267 270 273 276 277 280 288
211 214 216 221 225 227 230 232 233 237 239 237 240 242 243 247 250 250 249 252 264 277 280 279 277 279 282 282 284 287 284 281 277 270 264 262 262 264 266 268 270 271 272 273 276 280 281 282 283 282 281 279 277 277 277 277 276 275 273 271 269 267 266 266 265 265 266 267 269 272 275 275 277 285
208 212 216 219 225 230 232 234 235 238 239 238 240 243 245 250 255 257 261 266 273 283 289 291 293 296 299 298 296 294 289 285 285 281 276 271 267 264 264 265 267 268 268 269 270 272 274 276 279 281 282 281 280 279 277 276 276 276 276 275 273 272 270 269 268 268 269 269 270 272 274 273 273 280
208 214 219 221 224 228 231 234 236 236 237 238 240 243 245 248 254 259 263 270 279 287 293 298 302 305 305 301 296 293 291 289 287 282 279 280 277 272 270 269 269 269 270 272 272 270 271 274 278 280 280 279 279 279 277 275 275 275 276 276 276 274 273 272 272 272 272 272 271 270 269 270 271 275
212 215 220 223 223 227 232 234 235 235 236 237 237 242 249 251 254 259 264 273 279 282 286 291 297 301 299 295 291 290 291 291 289 285 283 283 282 279 277 274 273 273 274 277 277 275 274 273 275 277 278 279 279 278 277 276 275 275 275 276 277 276 275 274 274 275 275 273 269 266 266 269 272 273
215 216 219 224 225 227 230 231 233 235 235 236 239 244 249 253 258 265 270 276 279 278 280 285 290 294 293 288 285 287 290 290 290 290 288 286 285 285 282 278 278 278 275 275 276 276 276 276 275 275 275 277 278 279 279 279 278 276 275 275 276 276 276 274 273 273 274 273 271 270 271 273 271 270
218 220 222 227 229 230 231 231 233 234 234 236 241 245 249 254 262 268 272 276 279 280 282 283 284 288 289 284 283 289 292 287 282 283 282 283 288 290 284 279 282 282 278 276 275 276 277 277 277 277 276 277 279 280 280 280 279 278 276 276 276 276 275 274 272 271 271 272 274 276 277 276 271 268
220 224 225 229 232 232 231 232 233 234 236 239 241 245 250 254 257 265 273 278 280 281 282 283 284 287 287 286 288 292 290 281 276 277 274 277 286 290 286 283 284 283 281 280 279 280 280 278 277 277 278 279 281 281 281 280 279 278 277 278 277 277 276 275 274 273 271 272 274 275 276 274 270 269
222 227 230 234 237 238 235 232 231 233 234 236 241 245 248 251 255 265 275 280 282 283 282 284 286 286 285 286 290 292 288 285 287 288 282 277 281 286 285 285 285 285 284 283 281 281 280 278 278 278 279 280 281 282 283 283 281 280 281 281 280 279 278 277 276 275 273 272 272 272 271 271 270 271
224 229 234 241 248 248 242 236 235 236 234 233 238 242 248 255 261 268 274 277 278 280 281 284 285 283 281 284 287 289 291 293 298 302 299 293 294 296 290 286 289 289 287 283 281 280 281 280 281 281 281 282 283 284 284 282 280 279 280 282 284 285 283 281 279 277 275 273 273 272 272 273 274 274
224 227 230 241 251 250 245 242 241 238 233 232 236 244 253 261 266 268 271 274 275 275 276 279 280 280 281 286 289 290 295 301 307 312 310 303 300 298 293 290 293 293 290 289 288 285 284 284 284 284 284 284 285 286 285 283 281 280 280 281 283 284 282 281 280 278 276 274 274 274 274 274 275 275
225 227 231 240 248 247 242 243 242 234 230 233 242 251 258 264 267 268 269 271 271 270 270 271 273 275 279 284 287 291 299 308 311 308 303 298 296 294 292 290 291 292 294 296 295 289 287 287 285 284 285 286 287 289 290 289 285 280 279 279 280 280 279 279 278 276 275 274 274 273 274 274 275 275
226 231 237 242 248 246 234 228 228 230 233 240 248 254 259 264 266 267 269 269 268 266 264 263 266 271 274 278 283 290 298 303 305 304 300 298 296 295 293 290 290 292 293 292 289 285 285 286 283 282 285 287 288 290 291 288 283 279 280 281 283 282 282 281 280 279 277 276 275 274 273 274 274 275
228 234 242 244 242 234 224 218 222 231 238 243 250 258 263 264 265 270 274 276 274 270 265 261 264 268 271 275 280 286 291 293 295 296 293 292 292 291 290 288 288 291 291 288 282 278 283 285 278 276 282 286 286 287 287 286 286 287 287 287 286 287 287 286 285 283 281 278 276 276 276 276 276 277
234 241 245 242 235 230 229 226 224 231 237 242 251 260 262 263 268 275 278 279 280 278 271 267 268 271 273 275 276 277 279 283 287 289 288 288 288 286 284 284 285 288 290 287 279 273 279 283 276 276 285 290 289 288 288 287 288 288 287 286 286 288 288 286 284 283 281 280 279 280 280 280 278 278
239 245 245 242 242 241 235 233 232 234 239 244 248 253 257 261 267 271 273 272 273 275 275 273 271 268 267 267 268 270 277 285 289 287 284 282 279 276 275 277 278 280 287 289 281 275 280 289 291 292 295 296 295 294 292 290 289 287 287 287 287 287 286 284 282 281 281 282 282 281 281 280 278 278
238 244 244 244 245 240 234 237 240 238 237 237 238 243 250 253 256 261 267 270 272 272 271 271 268 264 264 267 271 276 280 284 284 276 269 269 267 265 266 270 273 278 286 289 284 279 285 299 304 303 302 301 299 297 294 291 290 288 288 288 287 286 284 283 283 284 284 283 282 281 281 280 279 279
238 239 239 241 243 241 239 238 234 229 231 234 237 240 243 246 252 260 267 274 281 281 272 269 272 273 275 280 283 282 281 281 277 266 261 263 263 260 264 273 280 285 285 285 287 288 297 310 315 312 308 302 296 294 292 291 291 289 289 290 288 285 285 286 288 288 286 285 283 282 282 281 279 278
235 233 234 236 238 238 236 231 227 231 239 241 239 240 244 249 255 260 262 268 283 295 291 284 281 279 281 284 284 281 280 281 280 271 265 265 263 260 266 273 280 285 281 286 305 316 315 316 315 311 306 299 295 294 292 291 291 290 291 291 288 287 290 291 291 290 289 287 285 284 283 282 279 277
226 224 227 231 232 227 223 226 233 242 249 247 241 239 244 249 252 254 258 266 277 286 285 282 282 281 280 279 278 279 282 287 290 284 275 269 263 259 264 274 284 293 295 300 310 314 311 309 306 301 296 291 293 295 294 292 290 290 292 292 290 291 294 294 293 292 291 289 288 286 285 283 279 274
221 220 223 228 229 226 227 236 243 247 252 250 243 241 245 251 256 260 266 273 279 282 281 282 285 284 283 283 283 287 290 293 297 301 299 288 274 272 286 303 308 304 300 300 303 304 302 300 297 295 292 288 287 291 294 294 291 291 293 293 291 293 296 296 295 295 293 292 290 288 286 284 279 274
222 223 225 226 229 232 238 243 242 242 247 247 246 252 258 262 265 268 272 275 277 279 281 284 285 284 287 291 292 293 296 300 304 305 304 298 293 295 303 307 305 299 295 297 299 297 293 290 289 289 289 287 287 289 292 293 293 296 299 297 295 296 298 298 297 297 296 294 291 290 290 288 285 280
220 219 218 220 228 237 240 237 235 237 241 245 253 264 268 271 272 272 273 275 278 283 283 280 279 281 287 291 294 299 305 305 304 303 301 299 298 299 298 297 294 290 289 292 295 293 288 285 284 284 282 281 284 287 289 292 297 301 303 301 300 302 302 301 300 299 298 296 294 293 294 294 293 290
215 217 223 227 233 235 229 225 227 232 239 251 267 274 273 272 271 271 274 279 283 282 274 271 276 286 297 304 306 309 309 306 304 305 304 302 300 297 295 294 293 292 292 294 295 293 288 284 281 280 279 280 283 287 291 294 296 300 304 305 304 305 306 306 304 302 300 298 296 295 295 295 297 295
211 219 227 223 218 215 212 217 230 243 255 266 272 271 266 263 267 276 279 278 274 269 268 279 297 309 316 317 312 306 304 305 307 305 302 299 297 296 297 298 298 298 299 298 296 292 287 282 279 279 282 284 287 289 291 291 293 298 302 304 304 305 307 308 307 305 302 299 296 295 295 294 294 293
207 214 211 202 200 207 223 242 253 262 269 271 268 264 261 259 261 267 265 257 254 255 257 271 291 302 304 301 299 302 304 303 303 301 298 299 299 301 304 303 301 300 299 297 296 293 289 286 284 286 290 291 291 290 288 288 292 299 303 305 304 305 308 311 310 307 304 301 298 296 295 294 293 291
202 205 207 207 217 240 256 261 263 263 263 264 265 263 261 258 253 254 254 242 234 239 250 264 277 286 288 289 295 302 303 301 301 303 302 301 300 302 303 300 297 297 298 299 300 300 298 298 298 298 299 297 294 293 291 290 292 298 304 308 307 307 309 311 312 310 308 305 302 298 296 295 294 292
213 216 222 230 241 251 253 250 248 247 249 254 258 256 254 250 244 246 248 236 231 245 263 271 272 277 288 297 302 303 301 300 302 304 303 301 301 302 299 292 290 293 298 304 310 312 310 306 303 304 308 304 298 296 295 294 295 299 304 309 311 310 310 312 313 313 313 310 304 300 298 297 296 293
209 209 220 231 232 232 232 229 228 232 238 244 246 242 242 244 242 239 237 235 245 259 262 255 256 287 306 306 304 300 299 300 302 304 305 304 301 298 293 287 288 294 301 309 315 315 313 310 307 310 314 312 306 301 297 294 297 300 304 310 312 311 312 315 315 315 314 310 304 301 300 300 299 297
203 199 208 222 226 222 218 212 213 223 229 230 232 232 232 234 237 239 242 252 268 273 258 238 288 314 310 305 303 300 298 298 301 305 305 301 298 297 294 292 295 302 309 312 313 313 312 311 311 314 318 320 317 311 302 294 293 298 305 310 311 312 314 318 319 317 315 310 304 300 301 302 302 302
217 212 217 233 247 252 248 234 228 235 235 231 232 235 233 231 233 234 234 246 279 287 291 326 319 311 306 303 300 295 294 297 303 306 304 302 302 300 298 298 305 312 315 313 313 313 311 309 312 318 322 324 323 317 311 302 296 300 307 311 313 314 316 320 321 319 315 313 308 302 301 303 303 302
223 231 242 259 266 270 273 267 261 269 271 262 262 266 258 257 271 262 195 63 355 334 326 320 312 305 300 293 288 290 297 304 307 305 304 307 307 303 303 308 313 315 316 315 314 312 307 304 313 322 322 324 325 318 314 313 312 310 310 311 316 319 320 321 322 319 316 315 313 306 302 304 302 299
223 236 247 260 262 263 269 271 280 310 337 345 334 325 327 342 348 354 17 7 351 337 323 312 302 292 289 290 294 302 308 306 303 304 308 311 309 308 313 318 316 315 316 314 310 307 304 304 315 325 324 322 323 310 309 315 318 321 320 317 317 321 323 323 322 320 318 318 316 312 308 305 300 296
234 242 249 266 278 285 289 296 318 344 356 352 342 342 346 341 329 330 349 351 340 327 315 306 298 295 302 307 306 305 303 301 302 308 311 311 312 318 322 319 317 316 313 308 307 310 311 312 321 328 324 315 311 307 308 312 316 321 327 326 320 321 326 327 323 320 321 322 323 321 315 309 302 296
234 247 262 279 298 325 346 352 354 351 340 335 339 345 346 342 340 345 352 348 341 333 322 312 309 308 306 301 298 298 301 305 309 313 313 314 320 324 321 316 314 312 308 307 312 318 317 317 327 330 321 306 298 301 303 301 304 314 325 330 327 327 330 329 325 323 323 326 329 328 325 324 323 312
212 228 254 279 307 339 352 354 352 345 335 332 340 342 335 331 331 334 336 338 335 328 319 310 304 297 291 292 297 302 306 311 314 314 316 322 325 320 316 314 313 311 310 313 318 318 316 320 330 330 321 311 306 308 308 305 305 314 324 330 333 335 336 333 329 326 325 328 333 333 329 331 332 321
199 217 246 281 323 325 321 326 343 354 353 345 342 343 339 332 328 330 328 314 304 304 304 299 288 281 285 297 306 310 312 315 316 316 321 325 320 316 317 318 317 316 318 317 315 316 320 324 327 327 323 317 314 316 320 317 314 320 325 329 335 340 343 342 338 334 332 334 339 338 334 331 329 319
207 214 216 219 281 297 300 297 303 336 347 342 334 338 342 337 329 327 320 299 282 273 273 275 275 283 301 310 313 316 317 316 317 322 325 320 315 317 322 322 320 321 321 317 316 321 325 326 325 323 325 325 321 319 323 322 320 323 326 329 335 341 346 348 348 346 344 347 351 350 342 334 332 327
201 191 182 220 254 271 285 285 272 276 291 301 312 322 321 315 310 308 308 303 289 268 262 274 293 309 313 312 315 320 319 318 319 320 317 314 315 321 323 322 323 324 320 319 323 327 327 326 324 321 324 332 335 329 325 327 328 328 329 331 336 341 346 349 351 353 355 360 5 2 351 342 339 324
163 161 192 248 256 254 262 265 258 252 258 268 285 290 284 283 296 303 298 295 292 286 285 300 311 308 307 316 324 322 317 315 314 312 312 317 321 323 323 324 326 324 323 325 330 329 327 325 323 320 324 336 342 338 333 330 330 331 335 337 340 343 346 349 351 355 358 2 8 8 0 358 4 1
188 206 235 256 258 255 252 245 236 231 238 250 262 273 278 289 303 297 284 279 284 290 295 302 304 306 316 325 322 314 312 312 313 315 319 321 321 323 326 327 325 323 327 333 331 326 325 323 322 322 330 342 347 346 341 337 336 340 344 345 345 346 348 349 351 353 354 357 5 10 7 6 14 25
Height
829 830 831 831 831 831 831 831 831 832 833 833 835 835 836 837 839 839 839 836 833 833 833 833 832 832 832 832 832 832 832 832 832 832 831 831 830 830 830 830 829 828 828 828 827 827 827 826 826 825 824 824 824 824 824 824 825 824 824 824 824 824 823 823 822 822 822 821 821 821 821 821 821 821
828 829 829 830 830 831 831 831 831 831 832 833 834 835 835 836 836 837 838 836 833 833 833 832 832 832 831 831 831 831 831 830 830 830 830 830 829 828 828 827 827 826 826 825 824 824 824 823 823 822 822 821 821 821 821 821 822 821 821 821 821 821 821 821 820 820 819 819 819 819 819 819 818 818
827 828 828 828 829 829 830 830 831 831 832 832 833 833 834 834 835 835 836 836 833 832 832 831 832 831 831 830 830 830 829 829 829 829 828 828 828 827 826 825 824 823 823 822 822 821 821 820 820 820 819 819 818 818 818 818 818 818 818 817 817 817 817 818 818 817 817 817 817 816 816 816 816 816
825 826 827 827 827 828 828 829 830 831 831 831 831 832 832 833 833 833 834 833 831 831 831 830 830 830 829 828 828 827 827 827 827 827 826 826 825 825 824 823 822 821 821 820 819 818 818 817 817 817 816 816 816 816 815 815 815 814 814 814 814 814 814 814 814 814 814 814 814 814 814 813 813 813
823 824 825 826 826 826 827 827 828 829 829 830 830 830 830 831 831 831 831 831 829 828 829 829 828 828 828 827 826 825 824 824 824 824 823 823 822 822 821 820 820 819 819 818 817 816 815 815 814 813 813 813 813 813 812 812 812 811 811 811 811 811 811 811 811 811 811 811 811 811 811 811 810 810
820 821 822 823 824 825 825 825 826 827 827 828 828 828 828 828 829 829 828 828 827 826 826 827 827 827 826 825 824 823 823 823 822 822 821 820 820 819 818 818 817 816 816 816 815 814 813 812 811 811 810 810 810 810 809 809 808 808 807 807 807 807 807 807 807 807 808 808 808 808 807 807 807 807
818 819 819 820 822 822 823 823 823 824 825 825 825 825 825 826 826 826 826 826 825 824 823 823 824 824 823 822 822 822 822 821 821 820 819 818 817 816 815 815 814 814 813 813 812 811 811 810 809 808 807 807 806 806 806 806 805 804 804 803 804 804 804 804 804 804 804 804 804 804 804 804 804 804
816 816 817 818 819 820 820 820 821 822 822 822 823 823 823 824 824 824 824 824 823 822 821 820 820 820 820 819 819 820 820 819 818 817 816 815 814 813 813 812 811 811 810 810 809 808 808 807 806 805 804 804 803 803 802 802 801 801 801 800 800 800 800 800 800 800 799 799 800 800 800 800 800 800
814 814 815 816 816 817 817 818 819 820 820 821 821 821 822 822 822 822 822 822 821 821 820 818 818 818 818 817 817 818 817 816 815 814 813 812 811 811 810 809 809 808 807 807 806 805 804 804 803 802 801 801 800 799 799 798 798 797 797 797 796 796 796 796 796 795 795 795 795 795 796 796 796 795
811 812 812 813 814 814 815 815 817 818 818 819 819 820 820 820 820 819 819 819 819 819 818 817 816 816 816 815 815 815 815 813 812 810 810 809 809 808 807 807 806 805 805 804 803 802 801 801 800 799 798 797 797 796 795 795 794 794 793 793 792 791 791 791 791 791 791 790 790 791 791 791 791 791
809 810 810 811 811 812 812 813 814 815 816 817 817 818 818 818 818 817 817 817 817 817 816 816 815 814 814 813 812 812 812 811 810 809 808 807 807 806 805 804 803 803 802 801 800 799 798 798 797 796 795 794 793 792 792 791 790 789 789 788 788 787 786 786 786 787 786 786 786 786 786 786 786 786
807 808 808 808 809 809 810 811 812 813 814 815 815 816 816 816 815 815 815 815 815 815 814 813 813 812 811 810 810 809 809 808 807 806 806 805 804 803 803 802 801 800 799 798 797 796 795 794 793 792 791 791 790 789 787 787 786 785 784 783 783 782 782 782 781 781 782 781 781 781 781 781 781 781
804 805 806 806 807 807 807 808 810 811 812 813 813 813 813 813 813 813 813 813 812 812 812 811 810 810 809 808 808 807 807 806 805 804 804 803 802 801 800 799 799 798 796 795 793 793 792 790 789 789 788 787 786 785 784 783 782 781 780 779 778 778 778 777 777 777 777 776 776 776 776 776 776 776
801 802 804 805 807 808 806 806 807 808 810 810 811 811 811 811 810 810 810 810 810 810 809 809 808 807 806 806 806 805 805 805 804 803 802 801 800 799 798 796 796 795 794 792 790 789 789 788 786 785 784 783 782 781 780 779 778 777 776 775 774 774 774 773 773 772 772 772 772 771 771 770 770 770
798 800 801 803 805 806 805 804 805 806 807 808 808 808 808 808 808 807 807 807 807 807 807 807 806 805 804 803 804 803 803 803 802 802 801 800 799 798 796 794 793 793 792 790 787 786 786 785 782 781 780 779 777 777 775 774 773 773 772 772 771 770 769 769 768 768 768 767 766 766 765 765 764 764
797 798 799 800 801 802 802 803 804 804 805 806 806 806 806 806 805 805 805 805 805 805 805 804 803 802 801 801 801 801 801 800 800 800 799 798 797 796 795 793 791 791 791 789 785 781 781 782 779 776 775 774 773 772 771 770 769 768 768 767 766 766 765 764 764 763 762 762 761 761 760 759 758 758
795 796 797 798 799 800 800 801 802 802 803 804 804 804 803 803 803 803 803 803 803 803 802 801 800 799 799 799 799 799 799 799 798 797 797 796 795 794 793 791 790 789 789 788 783 777 776 777 775 772 771 770 769 768 767 765 765 764 764 763 762 762 761 760 760 759 757 757 756 755 754 753 752 751
793 795 795 796 797 797 797 798 799 799 801 801 801 801 801 800 800 800 800 800 800 799 799 798 797 797 797 797 797 797 797 797 796 796 795 794 793 791 790 789 787 786 786 785 780 773 771 773 771 768 767 766 764 764 763 762 762 761 760 760 759 757 757 755 754 753 752 751 750 749 748 747 745 744
792 793 793 794 795 796 796 795 796 797 798 798 798 799 798 798 798 798 797 797 797 796 795 795 795 795 795 795 795 795 795 795 794 794 793 792 790 788 787 785 784 783 782 782 778 771 767 769 767 764 763 762 760 760 760 759 759 758 757 756 755 753 752 750 749 748 747 746 744 743 741 740 738 737
789 790 790 791 793 794 794 793 794 795 796 796 796 796 796 797 796 796 796 796 795 794 793 793 792 792 793 793 793 793 793 792 792 791 790 789 787 785 784 782 780 779 779 779 776 770 765 766 765 762 761 760 758 757 756 756 755 755 753 752 750 748 747 746 744 743 742 740 738 736 734 732 730 728
786 786 788 789 790 791 791 791 791 793 794 794 794 795 795 795 795 794 794 794 793 792 791 791 791 790 791 791 791 791 790 790 789 789 787 785 783 782 781 779 777 776 775 775 773 768 764 763 763 760 758 757 756 754 753 752 751 750 749 747 746 744 743 741 740 738 735 733 730 728 725 723 721 720
783 783 784 786 787 788 788 789 790 791 792 793 793 794 794 794 793 793 792 792 791 790 789 789 789 789 789 789 788 788 788 787 786 785 783 781 780 780 779 776 775 773 772 772 770 766 763 762 762 759 756 753 752 751 750 748 748 746 745 744 742 741 739 736 734 731 728 725 722 719 717 715 713 711
780 780 781 782 784 785 785 787 789 790 791 791 792 792 792 792 792 791 790 790 789 789 788 788 788 787 787 786 786 785 784 783 782 781 779 779 779 778 777 775 773 771 769 769 768 765 762 761 761 760 756 751 748 747 747 746 744 743 741 740 738 736 734 731 727 724 720 717 714 711 708 706 705 703
776 777 778 779 781 782 783 785 787 788 789 789 790 791 791 791 790 789 789 788 788 787 787 786 786 785 785 784 783 782 781 780 780 779 777 777 777 776 774 773 772 769 766 766 766 764 762 761 759 759 757 752 746 743 743 742 741 739 738 736 733 731 727 724 720 717 713 709 706 703 699 697 696 695
774 774 775 777 778 779 781 783 784 786 787 787 788 789 789 788 787 787 787 786 786 786 785 784 784 783 782 782 781 781 780 779 778 777 776 776 775 774 772 771 770 767 764 764 765 764 761 760 757 755 755 752 747 742 740 738 736 735 733 731 728 726 722 718 714 709 705 702 698 695 692 690 688 687
772 773 773 774 776 778 779 781 782 784 785 785 786 787 786 785 785 784 784 784 784 783 783 782 782 781 781 780 780 779 778 777 777 776 775 774 773 772 771 770 768 766 763 762 763 762 760 757 755 753 751 749 745 741 738 734 731 730 729 727 724 721 717 713 708 702 698 695 692 689 686 683 681 679
770 771 771 773 774 776 778 779 780 782 783 783 784 784 783 782 782 782 781 781 781 781 780 780 780 779 779 778 777 777 776 776 775 774 773 772 771 770 769 768 767 765 762 760 760 759 757 754 752 751 749 746 742 739 736 732 727 724 722 721 718 715 712 708 703 697 692 689 685 681 678 675 672 670
768 769 770 771 773 775 776 778 779 780 781 781 781 780 780 779 779 779 778 778 778 778 778 778 778 777 777 776 776 775 775 774 773 772 771 770 769 768 767 765 764 762 760 759 757 756 754 751 748 747 746 744 741 737 734 729 725 721 718 714 711 709 706 703 698 692 687 684 680 676 672 669 665 663
766 767 769 771 772 774 775 777 778 778 779 778 777 777 776 776 776 776 775 775 776 776 776 776 776 775 775 775 774 774 773 772 771 770 769 768 767 766 764 763 761 760 758 756 754 752 750 747 744 743 742 741 739 736 732 726 721 718 716 712 706 703 701 698 693 688 683 679 674 671 667 663 660 658
765 766 768 770 771 773 774 775 776 776 775 775 774 774 774 774 774 773 773 774 774 774 774 773 773 773 773 773 773 772 771 770 769 768 767 765 764 763 762 760 758 757 755 753 750 747 745 743 742 741 739 737 735 732 729 724 718 714 712 709 704 698 695 693 688 683 679 674 669 665 661 658 655 652
764 766 768 769 770 772 773 773 773 773 772 772 772 772 772 772 772 772 772 772 772 772 771 770 770 770 771 771 771 770 769 768 768 767 766 764 762 761 760 758 756 753 751 748 746 744 743 741 740 738 736 733 731 728 725 722 717 711 707 705 701 695 690 687 683 678 674 669 664 659 655 651 648 644
764 766 767 768 769 770 770 770 770 770 770 770 770 770 770 770 770 770 770 770 770 769 769 768 768 768 769 769 769 768 767 766 766 765 764 762 761 759 758 756 753 750 747 745 743 742 741 739 737 735 733 731 728 725 721 718 714 709 704 700 698 693 688 683 678 673 669 664 658 653 648 644 640 637
763 765 766 767 767 767 767 768 767 768 768 768 768 768 768 768 768 768 768 767 767 767 767 766 767 766 767 767 767 767 766 765 764 764 762 761 759 757 756 753 751 748 746 743 741 739 737 736 734 732 730 728 725 722 719 715 710 706 702 698 693 689 684 680 675 670 665 661 654 647 641 636 633 630
762 763 764 765 764 764 765 765 765 765 765 765 766 766 766 766 766 765 765 765 765 766 765 765 765 765 765 766 766 765 764 763 763 762 760 759 757 755 753 751 749 747 744 742 740 737 735 732 730 728 725 723 721 719 718 714 708 704 701 698 692 686 680 675 671 666 662 658 652 644 637 630 626 623
761 761 762 762 762 762 762 762 763 763 763 762 763 763 763 763 763 763 764 764 764 765 765 764 764 765 765 765 765 764 763 762 761 760 758 757 755 753 751 749 747 745 743 741 738 736 733 730 728 725 722 719 717 714 712 711 708 703 699 695 690 684 678 672 667 662 657 653 648 642 635 627 620 617
760 760 760 760 760 761 761 760 761 761 760 760 761 761 761 762 762 762 762 763 764 764 764 764 764 764 764 764 763 762 762 761 759 758 756 755 753 751 749 748 746 744 742 740 737 734 731 729 726 724 721 719 716 711 707 706 706 703 698 692 687 682 676 670 665 660 655 650 645 640 634 627 618 613
758 759 759 759 759 759 759 759 759 759 759 759 760 760 760 761 761 762 761 762 762 763 763 763 763 763 763 763 762 761 761 760 758 756 755 754 752 750 748 747 745 743 741 739 736 733 730 727 725 723 721 719 717 713 706 701 699 698 696 691 685 680 675 669 661 656 651 647 642 637 632 625 615 608
757 757 758 758 758 758 758 758 758 758 759 759 760 760 760 760 761 761 760 760 761 762 762 763 763 763 763 762 761 760 759 758 757 755 754 752 750 749 747 745 744 742 740 737 734 732 729 726 724 722 721 719 716 713 707 700 695 693 692 691 686 679 675 669 661 654 648 643 638 633 628 621 611 604
756 756 757 757 757 758 758 758 758 758 759 759 759 760 760 760 760 760 760 760 761 762 762 763 763 763 762 761 760 760 758 757 756 754 753 751 749 748 746 744 742 740 738 735 733 731 728 725 723 721 720 717 715 711 707 703 697 692 690 689 686 680 675 668 662 654 647 640 635 628 621 613 605 599
754 755 756 756 757 757 757 758 758 759 759 759 759 759 759 759 760 760 760 761 762 762 763 763 762 762 761 760 759 758 757 756 755 753 752 751 749 747 745 743 741 739 736 734 732 729 727 724 722 721 718 715 712 709 706 703 697 692 689 687 684 681 676 669 662 656 649 642 636 629 620 612 604 599
753 754 755 755 756 756 757 758 758 758 759 759 759 759 759 759 759 759 760 761 762 763 763 762 761 761 760 759 759 758 757 756 754 753 751 750 748 746 744 742 740 738 736 733 731 728 726 724 721 719 716 713 710 707 704 701 696 691 687 684 681 678 674 669 664 658 651 644 638 631 622 615 608 601
752 753 754 754 755 756 757 757 757 758 758 759 759 758 759 759 759 760 760 761 761 762 761 761 760 760 759 759 758 757 756 755 754 752 751 749 747 745 743 741 739 737 735 733 730 727 725 722 720 717 714 711 709 706 703 700 696 691 686 682 678 674 670 667 662 658 652 646 640 633 625 618 612 604
751 752 753 754 755 756 756 756 756 757 757 758 758 758 759 759 759 760 760 760 760 760 760 759 759 759 759 758 758 757 756 755 753 752 750 748 746 744 742 740 739 737 734 732 729 727 724 721 718 715 713 710 708 706 703 699 696 692 687 682 677 671 667 663 659 655 651 646 642 638 633 628 622 614
750 751 753 753 754 755 755 755 755 756 756 757 757 758 758 758 759 760 760 760 760 759 759 759 759 759 758 758 757 757 755 754 753 751 749 747 746 744 742 740 738 736 733 731 728 726 723 720 717 714 712 709 707 705 702 699 696 693 688 683 678 672 666 661 656 652 648 644 640 637 634 630 625 618
749 751 752 752 753 753 753 754 755 755 755 755 756 757 757 757 759 760 760 759 759 758 758 759 758 758 758 757 757 756 755 753 752 750 749 747 745 743 742 740 738 735 733 730 728 725 721 719 716 713 711 709 707 705 703 699 696 693 689 685 679 674 668 663 658 653 648 644 641 637 633 628 623 617